Weather in Cobán

Guatemala     15°28′16″N   90°22′22″W
temp.,
°C
wind,
m/s
gust,
m/s
humid.,
%
clouds,
%
prec.,
mm/h
press.,
hPa
HPBL,
m
9 may, sun
sun900:00+14s219614 0.0 101824
03:00+13s119215 0.0 101617
06:00+13sse11915 0.0 101718
09:00+22ne11627 0.0 1016787
12:00+25nne235544 0.0 10141733
15:00+22ne138046 1.3 1012779
18:00+18ese129322 3.2 101453
21:00+16sse219694 0.3 101632
10 may, mon
mon1000:00+15sse219611 0.3 101536
03:00+15sse1195100 0.0 101419
06:00+15sse119465 0.0 101615
09:00+23nne116892 0.0 1015858
12:00+26nne22526 0.1 10131967
15:00+25ne225294 0.3 10111465
18:00+20e118452 0.5 101312
21:00+17sse21906 0.0 101632
11 may, tue
tue1100:00+16sse2189100 0.0 101531
03:00+15sse118643 0.0 101416
06:00+15sse118899 0.0 101628
09:00+23ne11595 0.0 1015877
12:00+26ne234916 0.0 10132143
15:00+26ne224846 0.1 10111836
18:00+20e118314 0.4 101324
21:00+17sse21956 0.5 101633
12 may, wed
wed1200:00+16sse229669 0.6 101649
03:00+16sse119538 0.0 101413
06:00+16sse119420 0.0 101616
09:00+23nne12668 0.0 1015811
12:00+24nne226663 1.2 10141435
15:00+23nne127687 2.6 1012805
18:00+19e119319 5.2 101315
21:00+17sse119756 0.9 101626
13 may, thu
thu1300:00+17ssw1196100 1.6 101615
03:00+16sw1196100 0.0 101414
06:00+17nw129999 0.0 1016139
09:00+18wnw1197100 0.4 1017182
12:00+19ene0193100 1.1 1016227
15:00+19nne119698 1.3 1015172
18:00+17ene0196100 3.1 101516
21:00+17e0198100 0.2 101824